Time,TemperatureF,DewpointF,PressureIn,WindDirection,WindDirectionDegrees,WindSpeedMPH,WindSpeedGustMPH,Humidity,HourlyPrecipIn,Conditions,Clouds,dailyrainin,SoftwareType,DateUTC
2013-07-17 00:02:00,60.6,52.7,29.98,West,270,0.0,0.0,75,0.00,,,0.00,WUHU216HW,2013-07-17 07:02:00,
2013-07-17 00:07:00,60.6,52.7,29.98,SW,225,0.0,0.0,75,0.00,,,0.00,WUHU216HW,2013-07-17 07:07:00,
2013-07-17 00:12:00,60.4,52.5,29.98,WNW,293,0.0,0.0,75,0.00,,,0.00,WUHU216HW,2013-07-17 07:12:00,
2013-07-17 00:18:00,60.4,52.5,29.98,WNW,293,0.0,0.0,75,0.00,,,0.00,WUHU216HW,2013-07-17 07:18:00,
2013-07-17 00:23:00,60.4,52.5,29.98,West,270,0.0,0.0,75,0.00,,,0.00,WUHU216HW,2013-07-17 07:23:00,
2013-07-17 00:28:00,60.2,52.3,29.98,West,270,0.0,0.0,75,0.00,,,0.00,WUHU216HW,2013-07-17 07:28:00,
2013-07-17 00:33:00,60.0,52.1,29.98,West,270,0.0,0.0,75,0.00,,,0.00,WUHU216HW,2013-07-17 07:33:00,
2013-07-17 00:38:00,60.0,52.1,29.98,West,270,0.0,0.0,75,0.00,,,0.00,WUHU216HW,2013-07-17 07:38:00,
2013-07-17 00:43:00,60.0,52.1,29.98,West,270,0.0,0.0,75,0.00,,,0.00,WUHU216HW,2013-07-17 07:43:00,
2013-07-17 00:48:00,60.0,52.1,29.99,West,270,0.0,0.0,75,0.00,,,0.00,WUHU216HW,2013-07-17 07:48:00,
2013-07-17 00:53:00,60.0,52.1,29.98,SW,225,0.0,0.0,75,0.00,,,0.00,WUHU216HW,2013-07-17 07:53:00,
2013-07-17 00:58:00,60.0,52.1,29.98,SW,225,0.0,0.0,75,0.00,,,0.00,WUHU216HW,2013-07-17 07:58:00,
2013-07-17 01:03:00,60.0,52.1,29.98,SW,225,0.0,0.0,75,0.00,,,0.00,WUHU216HW,2013-07-17 08:03:00,
2013-07-17 01:08:00,59.9,51.9,29.98,WSW,248,0.0,0.0,75,0.00,,,0.00,WUHU216HW,2013-07-17 08:08:00,
2013-07-17 01:13:00,59.9,51.9,29.99,WSW,248,0.0,0.0,75,0.00,,,0.00,WUHU216HW,2013-07-17 08:13:00,
2013-07-17 01:18:00,59.9,51.9,29.99,WSW,248,0.0,0.0,75,0.00,,,0.00,WUHU216HW,2013-07-17 08:18:00,
2013-07-17 01:24:00,59.9,51.9,29.99,WSW,248,0.0,0.0,75,0.00,,,0.00,WUHU216HW,2013-07-17 08:24:00,
2013-07-17 01:29:00,59.9,51.9,29.98,WSW,248,0.0,0.0,75,0.00,,,0.00,WUHU216HW,2013-07-17 08:29:00,
2013-07-17 01:34:00,59.9,51.9,29.99,WSW,248,0.0,0.0,75,0.00,,,0.00,WUHU216HW,2013-07-17 08:34:00,
2013-07-17 01:39:00,59.9,51.9,29.99,WSW,248,0.0,0.0,75,0.00,,,0.00,WUHU216HW,2013-07-17 08:39:00,
2013-07-17 01:44:00,59.9,51.9,29.99,WSW,248,0.0,0.0,75,0.00,,,0.00,WUHU216HW,2013-07-17 08:44:00,
2013-07-17 01:49:00,59.7,51.8,29.99,WSW,248,0.0,0.0,75,0.00,,,0.00,WUHU216HW,2013-07-17 08:49:00,
2013-07-17 01:54:00,59.7,51.8,29.98,WSW,248,0.0,0.0,75,0.00,,,0.00,WUHU216HW,2013-07-17 08:54:00,
2013-07-17 01:59:00,59.7,51.8,29.98,WSW,248,0.0,0.0,75,0.00,,,0.00,WUHU216HW,2013-07-17 08:59:00,
2013-07-17 02:04:00,59.7,51.8,29.99,WSW,248,0.0,0.0,75,0.00,,,0.00,WUHU216HW,2013-07-17 09:04:00,
2013-07-17 02:09:00,59.5,51.6,29.98,WSW,248,0.0,0.0,75,0.00,,,0.00,WUHU216HW,2013-07-17 09:09:00,
2013-07-17 02:15:00,59.5,51.6,29.98,WSW,248,0.0,0.0,75,0.00,,,0.00,WUHU216HW,2013-07-17 09:15:00,
2013-07-17 02:19:00,59.5,51.6,29.98,WSW,248,0.0,0.0,75,0.00,,,0.00,WUHU216HW,2013-07-17 09:19:00,
2013-07-17 02:25:00,59.5,51.6,29.98,SSW,203,0.6,0.6,75,0.00,,,0.00,WUHU216HW,2013-07-17 09:25:00,
2013-07-17 02:30:00,59.5,51.6,29.99,SSW,203,0.0,0.6,75,0.00,,,0.00,WUHU216HW,2013-07-17 09:30:00,
2013-07-17 02:35:00,59.7,51.8,29.99,SSW,203,0.0,0.6,75,0.00,,,0.00,WUHU216HW,2013-07-17 09:35:00,
2013-07-17 02:40:00,59.7,51.8,29.98,SSW,203,0.0,0.0,75,0.00,,,0.00,WUHU216HW,2013-07-17 09:40:00,
2013-07-17 02:45:00,59.5,51.8,29.98,SW,225,0.0,0.0,75,0.00,,,0.00,WUHU216HW,2013-07-17 09:45:00,
2013-07-17 02:50:00,59.7,51.8,29.98,SW,225,0.0,0.0,75,0.00,,,0.00,WUHU216HW,2013-07-17 09:50:00,
2013-07-17 02:55:00,59.5,51.9,29.98,SSW,203,1.1,1.1,76,0.00,,,0.00,WUHU216HW,2013-07-17 09:55:00,
2013-07-17 03:00:00,59.5,51.9,29.98,SW,225,0.0,1.1,76,0.00,,,0.00,WUHU216HW,2013-07-17 10:00:00,
2013-07-17 03:05:00,59.5,51.9,29.98,SSE,158,1.5,1.5,76,0.00,,,0.00,WUHU216HW,2013-07-17 10:05:00,
2013-07-17 03:10:00,59.3,51.8,29.98,SSW,203,0.0,1.5,76,0.00,,,0.00,WUHU216HW,2013-07-17 10:10:00,
2013-07-17 03:15:00,59.1,51.9,29.98,SE,135,1.3,1.3,77,0.00,,,0.00,WUHU216HW,2013-07-17 10:15:00,
2013-07-17 03:20:00,59.1,51.9,29.98,SW,225,0.0,1.3,77,0.00,,,0.00,WUHU216HW,2013-07-17 10:20:00,
2013-07-17 03:25:00,58.8,51.6,29.98,SW,225,0.0,1.1,77,0.00,,,0.00,WUHU216HW,2013-07-17 10:25:00,
2013-07-17 03:30:00,58.8,51.6,29.98,SSW,203,0.0,1.1,77,0.00,,,0.00,WUHU216HW,2013-07-17 10:30:00,
2013-07-17 03:35:00,58.8,51.6,29.98,SSW,203,0.0,1.1,77,0.00,,,0.00,WUHU216HW,2013-07-17 10:35:00,
2013-07-17 03:40:00,58.8,51.6,29.98,SSW,203,0.0,1.1,77,0.00,,,0.00,WUHU216HW,2013-07-17 10:40:00,
2013-07-17 03:45:00,58.8,51.6,29.98,SSW,203,0.0,0.6,77,0.00,,,0.00,WUHU216HW,2013-07-17 10:45:00,
2013-07-17 03:50:00,58.8,51.6,29.98,SSE,158,0.0,0.6,77,0.00,,,0.00,WUHU216HW,2013-07-17 10:50:00,
2013-07-17 03:56:00,58.8,51.6,29.98,WSW,248,0.0,3.8,77,0.00,,,0.00,WUHU216HW,2013-07-17 10:56:00,
2013-07-17 04:01:00,58.8,51.6,29.98,SE,135,1.5,3.8,77,0.00,,,0.00,WUHU216HW,2013-07-17 11:01:00,
2013-07-17 04:06:00,58.8,51.9,29.98,South,180,0.0,2.9,78,0.00,,,0.00,WUHU216HW,2013-07-17 11:06:00,
2013-07-17 04:11:00,58.8,51.9,29.98,SE,135,0.0,2.9,78,0.00,,,0.00,WUHU216HW,2013-07-17 11:11:00,
2013-07-17 04:16:00,58.8,51.9,29.98,SSE,158,2.6,2.6,78,0.00,,,0.00,WUHU216HW,2013-07-17 11:16:00,
2013-07-17 04:21:00,58.8,51.9,29.98,SE,135,1.1,5.1,78,0.00,,,0.00,WUHU216HW,2013-07-17 11:21:00,
2013-07-17 04:26:00,58.8,51.9,29.98,SSE,158,2.2,5.1,78,0.00,,,0.00,WUHU216HW,2013-07-17 11:26:00,
2013-07-17 04:31:00,58.8,51.9,29.98,SW,225,0.0,2.2,78,0.00,,,0.00,WUHU216HW,2013-07-17 11:31:00,
2013-07-17 04:36:00,58.8,51.9,29.98,SW,225,1.7,1.7,78,0.00,,,0.00,WUHU216HW,2013-07-17 11:36:00,
2013-07-17 04:41:00,58.6,51.8,29.98,South,180,0.0,1.7,78,0.00,,,0.00,WUHU216HW,2013-07-17 11:41:00,
2013-07-17 04:46:00,58.6,51.8,29.99,SSW,203,0.0,1.7,78,0.00,,,0.00,WUHU216HW,2013-07-17 11:46:00,
2013-07-17 04:51:00,58.8,51.9,29.99,SSW,203,0.0,1.1,78,0.00,,,0.00,WUHU216HW,2013-07-17 11:51:00,
2013-07-17 04:57:00,58.8,51.9,29.99,South,180,0.0,0.0,78,0.00,,,0.00,WUHU216HW,2013-07-17 11:57:00,
2013-07-17 05:02:00,58.8,51.9,29.98,SE,135,0.0,0.0,78,0.00,,,0.00,WUHU216HW,2013-07-17 12:02:00,
2013-07-17 05:07:00,58.8,51.9,29.98,SE,135,0.0,0.0,78,0.00,,,0.00,WUHU216HW,2013-07-17 12:07:00,
2013-07-17 05:12:00,58.8,51.9,29.99,SE,135,0.0,0.0,78,0.00,,,0.00,WUHU216HW,2013-07-17 12:12:00,
2013-07-17 05:17:00,58.8,51.9,29.99,SE,135,0.0,0.0,78,0.00,,,0.00,WUHU216HW,2013-07-17 12:17:00,
2013-07-17 05:22:00,58.8,51.9,29.99,SE,135,0.0,0.0,78,0.00,,,0.00,WUHU216HW,2013-07-17 12:22:00,
2013-07-17 05:27:00,58.8,51.9,29.99,SSW,203,0.0,0.0,78,0.00,,,0.00,WUHU216HW,2013-07-17 12:27:00,
2013-07-17 05:33:00,58.8,52.3,29.99,SSW,203,0.0,0.0,79,0.00,,,0.00,WUHU216HW,2013-07-17 12:33:00,
2013-07-17 05:38:00,58.8,52.3,29.99,SSW,203,0.0,0.0,79,0.00,,,0.00,WUHU216HW,2013-07-17 12:38:00,
2013-07-17 05:43:00,58.8,52.3,29.99,SSW,203,0.0,0.0,79,0.00,,,0.00,WUHU216HW,2013-07-17 12:43:00,
2013-07-17 05:48:00,58.8,52.3,30.00,SSW,203,0.0,0.0,79,0.00,,,0.00,WUHU216HW,2013-07-17 12:48:00,
2013-07-17 05:53:00,58.8,52.3,30.00,SSW,203,0.0,0.0,79,0.00,,,0.00,WUHU216HW,2013-07-17 12:53:00,
2013-07-17 05:58:00,58.8,52.3,30.00,SSW,203,0.0,0.0,79,0.00,,,0.00,WUHU216HW,2013-07-17 12:58:00,
2013-07-17 06:03:00,58.8,52.3,30.00,SSW,203,0.0,0.0,79,0.00,,,0.00,WUHU216HW,2013-07-17 13:03:00,
2013-07-17 06:08:00,58.8,52.3,30.00,SSW,203,0.0,0.0,79,0.00,,,0.00,WUHU216HW,2013-07-17 13:08:00,
2013-07-17 06:13:00,58.6,52.1,30.00,SW,225,4.2,4.2,79,0.00,,,0.00,WUHU216HW,2013-07-17 13:13:00,
2013-07-17 06:18:00,58.6,52.1,30.00,SSW,203,1.7,4.2,79,0.00,,,0.00,WUHU216HW,2013-07-17 13:18:00,
2013-07-17 06:23:00,58.6,52.1,30.00,SW,225,0.0,1.7,79,0.00,,,0.00,WUHU216HW,2013-07-17 13:23:00,
2013-07-17 06:28:00,58.6,52.1,30.00,South,180,0.0,1.7,79,0.00,,,0.00,WUHU216HW,2013-07-17 13:28:00,
2013-07-17 06:33:00,58.4,51.9,30.01,SSE,158,0.0,2.4,79,0.00,,,0.00,WUHU216HW,2013-07-17 13:33:00,
2013-07-17 06:38:00,58.2,51.8,30.01,SSW,203,0.0,2.4,79,0.00,,,0.00,WUHU216HW,2013-07-17 13:38:00,
2013-07-17 06:43:00,58.1,51.6,30.01,SSE,158,2.0,2.0,79,0.00,,,0.00,WUHU216HW,2013-07-17 13:43:00,
2013-07-17 06:49:00,58.1,51.6,30.01,South,180,2.0,3.5,79,0.00,,,0.00,WUHU216HW,2013-07-17 13:49:00,
2013-07-17 06:54:00,57.9,51.4,30.01,South,180,0.0,3.5,79,0.00,,,0.00,WUHU216HW,2013-07-17 13:54:00,
2013-07-17 06:59:00,57.9,51.4,30.01,SSW,203,0.0,2.0,79,0.00,,,0.00,WUHU216HW,2013-07-17 13:59:00,
2013-07-17 07:04:00,57.9,51.4,30.01,SSE,158,0.0,0.0,79,0.00,,,0.00,WUHU216HW,2013-07-17 14:04:00,
2013-07-17 07:09:00,57.9,51.4,30.02,SSE,158,0.0,2.6,79,0.00,,,0.00,WUHU216HW,2013-07-17 14:09:00,
2013-07-17 07:14:00,57.9,51.4,30.02,SSE,158,0.0,2.6,79,0.00,,,0.00,WUHU216HW,2013-07-17 14:14:00,
2013-07-17 07:19:00,57.9,51.4,30.02,SSW,203,0.0,0.0,79,0.00,,,0.00,WUHU216HW,2013-07-17 14:19:00,
2013-07-17 07:24:00,57.9,51.4,30.02,South,180,0.0,0.6,79,0.00,,,0.00,WUHU216HW,2013-07-17 14:24:00,
2013-07-17 07:29:00,57.9,51.4,30.02,SSE,158,1.3,2.2,79,0.00,,,0.00,WUHU216HW,2013-07-17 14:29:00,
2013-07-17 07:34:00,57.9,51.4,30.02,SSW,203,0.0,2.2,79,0.00,,,0.00,WUHU216HW,2013-07-17 14:34:00,
2013-07-17 07:39:00,57.9,51.8,30.02,SSW,203,0.0,1.3,80,0.00,,,0.00,WUHU216HW,2013-07-17 14:39:00,
2013-07-17 07:44:00,57.9,51.8,30.03,SSW,203,0.0,0.0,80,0.00,,,0.00,WUHU216HW,2013-07-17 14:44:00,
2013-07-17 07:49:00,57.9,51.8,30.02,SSW,203,0.0,1.5,80,0.00,,,0.00,WUHU216HW,2013-07-17 14:49:00,
2013-07-17 07:55:00,58.1,51.9,30.03,SSW,203,0.0,1.5,80,0.00,,,0.00,WUHU216HW,2013-07-17 14:55:00,
2013-07-17 08:00:00,58.1,51.9,30.03,SSW,203,2.2,2.2,80,0.00,,,0.00,WUHU216HW,2013-07-17 15:00:00,
2013-07-17 08:05:00,58.1,51.9,30.03,SE,135,4.2,4.2,80,0.00,,,0.00,WUHU216HW,2013-07-17 15:05:00,
2013-07-17 08:10:00,58.1,51.9,30.03,SSW,203,1.1,4.2,80,0.00,,,0.00,WUHU216HW,2013-07-17 15:10:00,
2013-07-17 08:15:00,57.9,51.8,30.03,SW,225,1.1,4.2,80,0.00,,,0.00,WUHU216HW,2013-07-17 15:15:00,
2013-07-17 08:20:00,57.9,51.8,30.03,South,180,0.0,1.7,80,0.00,,,0.00,WUHU216HW,2013-07-17 15:20:00,
2013-07-17 08:25:00,57.9,51.8,30.03,South,180,4.9,4.9,80,0.00,,,0.00,WUHU216HW,2013-07-17 15:25:00,
2013-07-17 08:30:00,57.9,51.8,30.03,SSE,158,0.0,4.9,80,0.00,,,0.00,WUHU216HW,2013-07-17 15:30:00,
2013-07-17 08:35:00,58.1,51.9,30.03,SSW,203,1.3,1.3,80,0.00,,,0.00,WUHU216HW,2013-07-17 15:35:00,
2013-07-17 08:40:00,58.2,52.1,30.03,SW,225,0.0,1.7,80,0.00,,,0.00,WUHU216HW,2013-07-17 15:40:00,
2013-07-17 08:45:00,58.2,52.1,30.04,SW,225,2.6,3.5,80,0.00,,,0.00,WUHU216HW,2013-07-17 15:45:00,
2013-07-17 08:50:00,58.2,52.1,30.04,SSW,203,1.1,3.5,80,0.00,,,0.00,WUHU216HW,2013-07-17 15:50:00,
2013-07-17 08:55:00,58.2,52.1,30.04,SE,135,0.0,1.1,80,0.00,,,0.00,WUHU216HW,2013-07-17 15:55:00,
2013-07-17 09:00:00,58.4,52.3,30.04,SE,135,0.0,1.1,80,0.00,,,0.00,WUHU216HW,2013-07-17 16:00:00,
2013-07-17 09:05:00,58.4,52.3,30.04,SE,135,0.8,5.5,80,0.00,,,0.00,WUHU216HW,2013-07-17 16:05:00,
2013-07-17 09:10:00,58.6,52.5,30.04,SW,225,0.0,5.5,80,0.00,,,0.00,WUHU216HW,2013-07-17 16:10:00,
2013-07-17 09:15:00,58.6,52.1,30.05,SSW,203,2.4,5.3,79,0.00,,,0.00,WUHU216HW,2013-07-17 16:15:00,
2013-07-17 09:21:00,58.4,52.1,30.05,SSW,203,0.8,2.4,79,0.00,,,0.00,WUHU216HW,2013-07-17 16:21:00,
2013-07-17 09:26:00,58.6,52.5,30.05,WSW,248,2.2,3.1,80,0.00,,,0.00,WUHU216HW,2013-07-17 16:26:00,
2013-07-17 09:31:00,58.6,52.1,30.05,SSW,203,6.0,6.0,79,0.00,,,0.00,WUHU216HW,2013-07-17 16:31:00,
2013-07-17 09:36:00,58.8,52.3,30.05,SSW,203,1.1,6.0,79,0.00,,,0.00,WUHU216HW,2013-07-17 16:36:00,
2013-07-17 09:41:00,58.6,52.1,30.05,SSW,203,1.5,6.0,79,0.00,,,0.00,WUHU216HW,2013-07-17 16:41:00,
2013-07-17 09:46:00,58.8,52.3,30.05,WSW,248,6.0,6.0,79,0.00,,,0.00,WUHU216HW,2013-07-17 16:46:00,
2013-07-17 09:51:00,58.8,52.7,30.05,SW,225,0.0,6.0,80,0.00,,,0.00,WUHU216HW,2013-07-17 16:51:00,
2013-07-17 09:56:00,58.8,52.3,30.05,SSW,203,0.0,5.5,79,0.00,,,0.00,WUHU216HW,2013-07-17 16:56:00,
2013-07-17 10:01:00,58.8,52.3,30.05,SSW,203,5.8,5.8,79,0.00,,,0.00,WUHU216HW,2013-07-17 17:01:00,
2013-07-17 10:06:00,59.1,52.7,30.05,SW,225,2.4,5.8,79,0.00,,,0.00,WUHU216HW,2013-07-17 17:06:00,
2013-07-17 10:11:00,59.3,52.5,30.05,SSW,203,4.0,4.9,78,0.00,,,0.00,WUHU216HW,2013-07-17 17:11:00,
2013-07-17 10:16:00,59.5,52.7,30.05,SE,135,2.2,4.9,78,0.00,,,0.00,WUHU216HW,2013-07-17 17:16:00,
2013-07-17 10:21:00,59.7,52.8,30.05,SSW,203,2.4,2.4,78,0.00,,,0.00,WUHU216HW,2013-07-17 17:21:00,
2013-07-17 10:26:00,59.7,52.8,30.05,SSE,158,0.0,3.5,78,0.00,,,0.00,WUHU216HW,2013-07-17 17:26:00,
2013-07-17 10:31:00,59.9,52.7,30.05,SW,225,7.6,7.6,77,0.00,,,0.00,WUHU216HW,2013-07-17 17:31:00,
2013-07-17 10:36:00,60.0,52.8,30.05,SW,225,9.3,9.3,77,0.00,,,0.00,WUHU216HW,2013-07-17 17:36:00,
2013-07-17 10:42:00,60.0,52.8,30.05,South,180,0.0,9.3,77,0.00,,,0.00,WUHU216HW,2013-07-17 17:42:00,
2013-07-17 10:47:00,60.4,53.2,30.05,South,180,2.2,6.0,77,0.00,,,0.00,WUHU216HW,2013-07-17 17:47:00,
2013-07-17 10:52:00,60.4,53.2,30.05,South,180,4.9,6.0,77,0.00,,,0.00,WUHU216HW,2013-07-17 17:52:00,
2013-07-17 10:56:00,60.6,53.4,30.05,SSE,158,1.1,4.9,77,0.00,,,0.00,WUHU216HW,2013-07-17 17:56:00,
2013-07-17 11:02:00,60.9,53.4,30.05,SW,225,5.8,6.7,76,0.00,,,0.00,WUHU216HW,2013-07-17 18:02:00,
2013-07-17 11:07:00,61.1,53.5,30.05,South,180,5.3,6.7,76,0.00,,,0.00,WUHU216HW,2013-07-17 18:07:00,
2013-07-17 11:12:00,61.1,53.5,30.05,West,270,0.0,6.7,76,0.00,,,0.00,WUHU216HW,2013-07-17 18:12:00,
2013-07-17 11:17:00,61.3,53.3,30.05,SW,225,7.6,7.6,75,0.00,,,0.00,WUHU216HW,2013-07-17 18:17:00,
2013-07-17 11:22:00,61.5,53.5,30.05,SW,225,11.1,11.1,75,0.00,,,0.00,WUHU216HW,2013-07-17 18:22:00,
2013-07-17 11:27:00,61.5,53.5,30.06,SW,225,8.2,11.1,75,0.00,,,0.00,WUHU216HW,2013-07-17 18:27:00,
2013-07-17 11:32:00,61.7,53.6,30.06,SSW,203,2.6,8.2,75,0.00,,,0.00,WUHU216HW,2013-07-17 18:32:00,
2013-07-17 11:37:00,61.8,53.8,30.06,ESE,113,4.0,7.3,75,0.00,,,0.00,WUHU216HW,2013-07-17 18:37:00,
2013-07-17 11:42:00,61.8,53.8,30.06,SW,225,3.1,7.3,75,0.00,,,0.00,WUHU216HW,2013-07-17 18:42:00,
2013-07-17 11:47:00,62.2,54.1,30.06,WNW,293,0.0,5.5,75,0.00,,,0.00,WUHU216HW,2013-07-17 18:47:00,
2013-07-17 11:53:00,62.4,53.9,30.06,South,180,3.8,4.6,74,0.00,,,0.00,WUHU216HW,2013-07-17 18:53:00,
2013-07-17 11:58:00,62.4,53.9,30.06,South,180,5.5,5.5,74,0.00,,,0.00,WUHU216HW,2013-07-17 18:58:00,
2013-07-17 12:03:00,62.4,53.9,30.06,SW,225,3.5,5.5,74,0.00,,,0.00,WUHU216HW,2013-07-17 19:03:00,
2013-07-17 12:08:00,62.4,53.9,30.06,SW,225,6.2,6.7,74,0.00,,,0.00,WUHU216HW,2013-07-17 19:08:00,
2013-07-17 12:13:00,62.7,54.3,30.06,SW,225,7.6,8.0,74,0.00,,,0.00,WUHU216HW,2013-07-17 19:13:00,
2013-07-17 12:18:00,62.7,53.9,30.06,SSE,158,2.0,8.0,73,0.00,,,0.00,WUHU216HW,2013-07-17 19:18:00,
2013-07-17 12:23:00,63.1,54.3,30.06,SW,225,5.1,5.8,73,0.00,,,0.00,WUHU216HW,2013-07-17 19:23:00,
2013-07-17 12:28:00,63.3,54.1,30.06,NW,315,0.0,5.8,72,0.00,,,0.00,WUHU216HW,2013-07-17 19:28:00,
2013-07-17 12:33:00,63.6,54.8,30.06,SW,225,2.4,5.3,73,0.00,,,0.00,WUHU216HW,2013-07-17 19:33:00,
2013-07-17 12:38:00,64.0,54.8,30.06,SSW,203,1.7,5.3,72,0.00,,,0.00,WUHU216HW,2013-07-17 19:38:00,
2013-07-17 12:43:00,64.0,54.5,30.06,SW,225,0.0,2.4,71,0.00,,,0.00,WUHU216HW,2013-07-17 19:43:00,
2013-07-17 12:48:00,64.5,54.6,30.06,SSW,203,8.5,9.1,70,0.00,,,0.00,WUHU216HW,2013-07-17 19:48:00,
2013-07-17 12:53:00,64.5,54.6,30.06,SW,225,0.0,9.1,70,0.00,,,0.00,WUHU216HW,2013-07-17 19:53:00,
2013-07-17 12:58:00,64.5,54.6,30.05,South,180,7.6,8.5,70,0.00,,,0.00,WUHU216HW,2013-07-17 19:58:00,
2013-07-17 13:04:00,64.9,54.5,30.05,SW,225,4.6,7.6,69,0.00,,,0.00,WUHU216HW,2013-07-17 20:04:00,
2013-07-17 13:09:00,64.9,54.9,30.05,South,180,2.0,6.2,70,0.00,,,0.00,WUHU216HW,2013-07-17 20:09:00,
2013-07-17 13:14:00,65.3,55.3,30.05,WSW,248,2.4,6.2,70,0.00,,,0.00,WUHU216HW,2013-07-17 20:14:00,
2013-07-17 13:19:00,65.1,54.7,30.05,SSE,158,6.4,6.9,69,0.00,,,0.00,WUHU216HW,2013-07-17 20:19:00,
2013-07-17 13:24:00,65.4,55.0,30.05,SW,225,0.8,9.1,69,0.00,,,0.00,WUHU216HW,2013-07-17 20:24:00,
2013-07-17 13:29:00,65.8,55.3,30.05,SW,225,4.2,9.1,69,0.00,,,0.00,WUHU216HW,2013-07-17 20:29:00,
2013-07-17 13:34:00,66.2,55.7,30.05,SSW,203,6.2,6.2,69,0.00,,,0.00,WUHU216HW,2013-07-17 20:34:00,
2013-07-17 13:39:00,66.5,55.6,30.05,WSW,248,8.9,8.9,68,0.00,,,0.00,WUHU216HW,2013-07-17 20:39:00,
2013-07-17 13:44:00,66.7,55.8,30.05,SSE,158,0.6,8.9,68,0.00,,,0.00,WUHU216HW,2013-07-17 20:44:00,
2013-07-17 13:49:00,66.5,55.6,30.05,NNW,338,0.0,8.2,68,0.00,,,0.00,WUHU216HW,2013-07-17 20:49:00,
2013-07-17 13:51:00,66.7,55.8,30.05,WSW,248,4.9,8.2,68,0.00,,,0.00,WUHU216HW,2013-07-17 20:51:00,
2013-07-17 13:56:00,67.1,55.7,30.05,WSW,248,2.0,9.3,68,0.00,,,0.00,WUHU216HW,2013-07-17 20:56:00,
2013-07-17 14:01:00,67.2,55.9,30.05,SW,225,7.1,9.3,67,0.00,,,0.00,WUHU216HW,2013-07-17 21:01:00,
2013-07-17 14:06:00,67.6,56.2,30.05,SSE,158,2.0,7.1,67,0.00,,,0.00,WUHU216HW,2013-07-17 21:06:00,
2013-07-17 14:11:00,67.6,55.8,30.05,SW,225,6.0,7.1,66,0.00,,,0.00,WUHU216HW,2013-07-17 21:11:00,
2013-07-17 14:17:00,67.2,55.4,30.04,WSW,248,5.5,6.0,66,0.00,,,0.00,WUHU216HW,2013-07-17 21:17:00,
2013-07-17 14:22:00,67.2,55.4,30.04,SSW,203,2.9,6.0,66,0.00,,,0.00,WUHU216HW,2013-07-17 21:22:00,
2013-07-17 14:27:00,67.6,55.8,30.04,SE,135,4.9,5.5,66,0.00,,,0.00,WUHU216HW,2013-07-17 21:27:00,
2013-07-17 14:32:00,67.8,56.0,30.04,West,270,2.2,5.1,66,0.00,,,0.00,WUHU216HW,2013-07-17 21:32:00,
2013-07-17 14:37:00,67.8,55.5,30.04,South,180,6.0,6.0,65,0.00,,,0.00,WUHU216HW,2013-07-17 21:37:00,
2013-07-17 14:42:00,67.8,55.9,30.04,SW,225,6.4,6.4,65,0.00,,,0.00,WUHU216HW,2013-07-17 21:42:00,
2013-07-17 14:47:00,68.1,55.9,30.04,SSW,203,5.5,6.4,65,0.00,,,0.00,WUHU216HW,2013-07-17 21:47:00,
2013-07-17 14:52:00,68.1,55.9,30.04,South,180,11.4,11.4,65,0.00,,,0.00,WUHU216HW,2013-07-17 21:52:00,
2013-07-17 14:57:00,67.6,55.4,30.04,SSW,203,8.9,11.4,65,0.00,,,0.00,WUHU216HW,2013-07-17 21:57:00,
2013-07-17 15:02:00,67.4,55.2,30.05,SSW,203,5.3,8.9,65,0.00,,,0.00,WUHU216HW,2013-07-17 22:02:00,
2013-07-17 15:07:00,67.1,55.3,30.05,WNW,293,0.0,9.8,66,0.00,,,0.00,WUHU216HW,2013-07-17 22:07:00,
2013-07-17 15:12:00,67.2,55.4,30.05,SE,135,4.0,11.6,66,0.00,,,0.00,WUHU216HW,2013-07-17 22:12:00,
2013-07-17 15:17:00,67.6,55.4,30.04,SSW,203,3.3,11.6,65,0.00,,,0.00,WUHU216HW,2013-07-17 22:17:00,
2013-07-17 15:22:00,67.2,55.4,30.04,South,180,5.8,10.7,66,0.00,,,0.00,WUHU216HW,2013-07-17 22:22:00,
2013-07-17 15:27:00,67.8,55.4,30.04,SSE,158,5.8,5.8,65,0.00,,,0.00,WUHU216HW,2013-07-17 22:27:00,
2013-07-17 15:32:00,67.8,56.0,30.04,SW,225,6.4,6.4,66,0.00,,,0.00,WUHU216HW,2013-07-17 22:32:00,
2013-07-17 15:37:00,67.8,56.0,30.04,SW,225,8.2,8.2,66,0.00,,,0.00,WUHU216HW,2013-07-17 22:37:00,
2013-07-17 15:42:00,67.8,56.0,30.04,South,180,0.0,8.2,66,0.00,,,0.00,WUHU216HW,2013-07-17 22:42:00,
2013-07-17 15:47:00,67.2,55.0,30.04,WSW,248,11.6,11.6,65,0.00,,,0.00,WUHU216HW,2013-07-17 22:47:00,
2013-07-17 15:53:00,66.9,55.1,30.04,SSW,203,8.5,11.6,66,0.00,,,0.00,WUHU216HW,2013-07-17 22:53:00,
2013-07-17 15:58:00,67.1,55.3,30.04,SSE,158,5.5,11.6,66,0.00,,,0.00,WUHU216HW,2013-07-17 22:58:00,
2013-07-17 16:03:00,67.2,55.4,30.04,SSW,203,3.1,11.1,66,0.00,,,0.00,WUHU216HW,2013-07-17 23:03:00,
2013-07-17 16:08:00,67.6,55.8,30.03,SW,225,9.6,9.6,66,0.00,,,0.00,WUHU216HW,2013-07-17 23:08:00,
2013-07-17 16:14:00,67.6,55.4,30.03,SW,225,4.9,12.5,65,0.00,,,0.00,WUHU216HW,2013-07-17 23:14:00,
2013-07-17 16:19:00,66.7,54.9,30.03,SSE,158,9.1,12.5,66,0.00,,,0.00,WUHU216HW,2013-07-17 23:19:00,
2013-07-17 16:24:00,66.5,54.8,30.03,South,180,3.8,11.6,66,0.00,,,0.00,WUHU216HW,2013-07-17 23:24:00,
2013-07-17 16:29:00,66.5,55.2,30.03,South,180,7.6,9.1,67,0.00,,,0.00,WUHU216HW,2013-07-17 23:29:00,
2013-07-17 16:34:00,66.5,55.2,30.02,NW,315,0.0,7.6,67,0.00,,,0.00,WUHU216HW,2013-07-17 23:34:00,
2013-07-17 16:39:00,66.5,54.8,30.02,South,180,1.5,6.4,66,0.00,,,0.00,WUHU216HW,2013-07-17 23:39:00,
2013-07-17 16:44:00,66.5,54.8,30.03,WSW,248,4.9,6.4,66,0.00,,,0.00,WUHU216HW,2013-07-17 23:44:00,
2013-07-17 16:49:00,66.2,54.8,30.02,SW,225,5.5,8.7,67,0.00,,,0.00,WUHU216HW,2013-07-17 23:49:00,
2013-07-17 16:54:00,66.0,54.6,30.02,WSW,248,5.1,8.7,67,0.00,,,0.00,WUHU216HW,2013-07-17 23:54:00,
2013-07-17 16:59:00,65.8,54.5,30.02,SE,135,6.4,6.4,67,0.00,,,0.00,WUHU216HW,2013-07-17 23:59:00,
2013-07-17 17:04:00,65.4,54.1,30.02,SSE,158,6.2,6.4,67,0.00,,,0.00,WUHU216HW,2013-07-18 00:04:00,
2013-07-17 17:09:00,65.3,54.4,30.02,SW,225,6.7,6.7,68,0.00,,,0.00,WUHU216HW,2013-07-18 00:09:00,
2013-07-17 17:14:00,65.1,54.2,30.01,SSE,158,2.6,6.7,68,0.00,,,0.00,WUHU216HW,2013-07-18 00:14:00,
2013-07-17 17:20:00,65.1,54.2,30.02,WSW,248,10.2,10.2,68,0.00,,,0.00,WUHU216HW,2013-07-18 00:20:00,
2013-07-17 17:25:00,65.1,54.2,30.02,SSW,203,2.2,10.2,68,0.00,,,0.00,WUHU216HW,2013-07-18 00:25:00,
2013-07-17 17:30:00,64.9,54.5,30.02,South,180,6.0,8.7,69,0.00,,,0.00,WUHU216HW,2013-07-18 00:30:00,
2013-07-17 17:35:00,64.5,54.2,30.02,South,180,11.4,11.4,69,0.00,,,0.00,WUHU216HW,2013-07-18 00:35:00,
2013-07-17 17:40:00,64.2,54.3,30.02,WSW,248,0.0,11.4,70,0.00,,,0.00,WUHU216HW,2013-07-18 00:40:00,
2013-07-17 17:45:00,64.2,53.8,30.02,WSW,248,7.1,11.4,69,0.00,,,0.00,WUHU216HW,2013-07-18 00:45:00,
2013-07-17 17:50:00,63.6,53.7,30.02,SSW,203,7.3,8.7,70,0.00,,,0.00,WUHU216HW,2013-07-18 00:50:00,
2013-07-17 17:55:00,63.5,53.6,30.01,SW,225,6.4,7.3,70,0.00,,,0.00,WUHU216HW,2013-07-18 00:55:00,
2013-07-17 18:00:00,63.3,53.7,30.02,SW,225,13.6,13.6,71,0.00,,,0.00,WUHU216HW,2013-07-18 01:00:00,
2013-07-17 18:05:00,62.9,53.4,30.02,SW,225,7.3,13.6,71,0.00,,,0.00,WUHU216HW,2013-07-18 01:05:00,
2013-07-17 18:10:00,62.6,53.4,30.01,SW,225,2.0,7.3,72,0.00,,,0.00,WUHU216HW,2013-07-18 01:10:00,
2013-07-17 18:15:00,62.4,53.2,30.01,SW,225,2.6,7.3,72,0.00,,,0.00,WUHU216HW,2013-07-18 01:15:00,
2013-07-17 18:21:00,62.2,53.0,30.01,SSW,203,4.9,6.2,72,0.00,,,0.00,WUHU216HW,2013-07-18 01:21:00,
2013-07-17 18:26:00,62.0,53.2,30.01,SSE,158,5.5,6.2,73,0.00,,,0.00,WUHU216HW,2013-07-18 01:26:00,
2013-07-17 18:31:00,61.7,52.9,30.01,South,180,2.0,12.9,73,0.00,,,0.00,WUHU216HW,2013-07-18 01:31:00,
2013-07-17 18:36:00,61.3,53.0,30.01,SW,225,7.1,12.9,74,0.00,,,0.00,WUHU216HW,2013-07-18 01:36:00,
2013-07-17 18:41:00,60.9,52.6,30.01,SW,225,13.4,13.4,74,0.00,,,0.00,WUHU216HW,2013-07-18 01:41:00,
2013-07-17 18:46:00,60.6,52.7,30.01,SSE,158,6.4,13.4,75,0.00,,,0.00,WUHU216HW,2013-07-18 01:46:00,
2013-07-17 18:51:00,60.4,52.5,30.01,SSW,203,4.2,6.4,75,0.00,,,0.00,WUHU216HW,2013-07-18 01:51:00,
2013-07-17 18:56:00,60.4,52.5,30.01,SW,225,5.1,6.0,75,0.00,,,0.00,WUHU216HW,2013-07-18 01:56:00,
2013-07-17 19:01:00,60.0,52.5,30.01,ESE,113,5.3,6.0,76,0.00,,,0.00,WUHU216HW,2013-07-18 02:01:00,
2013-07-17 19:06:00,59.7,52.1,30.01,SSE,158,7.6,8.7,76,0.00,,,0.00,WUHU216HW,2013-07-18 02:06:00,
2013-07-17 19:11:00,59.7,52.1,30.01,ESE,113,3.5,8.7,76,0.00,,,0.00,WUHU216HW,2013-07-18 02:11:00,
2013-07-17 19:16:00,59.7,52.1,30.01,SE,135,4.0,7.8,76,0.00,,,0.00,WUHU216HW,2013-07-18 02:16:00,
2013-07-17 19:21:00,59.3,52.1,30.01,SE,135,7.1,7.8,77,0.00,,,0.00,WUHU216HW,2013-07-18 02:21:00,
2013-07-17 19:26:00,59.0,51.8,30.01,South,180,8.5,8.5,77,0.00,,,0.00,WUHU216HW,2013-07-18 02:26:00,
2013-07-17 19:31:00,58.8,51.9,30.01,SE,135,7.8,13.6,78,0.00,,,0.00,WUHU216HW,2013-07-18 02:31:00,
2013-07-17 19:36:00,58.8,51.9,30.01,South,180,7.3,13.6,78,0.00,,,0.00,WUHU216HW,2013-07-18 02:36:00,
2013-07-17 19:41:00,58.8,51.9,30.01,SW,225,5.3,7.6,78,0.00,,,0.00,WUHU216HW,2013-07-18 02:41:00,
2013-07-17 19:46:00,58.6,51.8,30.01,SW,225,2.6,7.8,78,0.00,,,0.00,WUHU216HW,2013-07-18 02:46:00,
2013-07-17 19:51:00,58.2,51.8,30.01,SW,225,6.2,7.8,79,0.00,,,0.00,WUHU216HW,2013-07-18 02:51:00,
2013-07-17 19:56:00,57.9,51.4,30.01,SSW,203,1.1,6.2,79,0.00,,,0.00,WUHU216HW,2013-07-18 02:56:00,
2013-07-17 20:01:00,57.9,51.4,30.02,SE,135,6.4,6.4,79,0.00,,,0.00,WUHU216HW,2013-07-18 03:01:00,
2013-07-17 20:06:00,57.9,51.4,30.02,SE,135,6.9,6.9,79,0.00,,,0.00,WUHU216HW,2013-07-18 03:06:00,
2013-07-17 20:11:00,57.7,51.2,30.02,SSE,158,4.9,6.9,79,0.00,,,0.00,WUHU216HW,2013-07-18 03:11:00,
2013-07-17 20:17:00,57.7,51.6,30.01,WSW,248,8.5,8.5,80,0.00,,,0.00,WUHU216HW,2013-07-18 03:17:00,
2013-07-17 20:22:00,57.5,51.4,30.01,SSE,158,4.4,8.5,80,0.00,,,0.00,WUHU216HW,2013-07-18 03:22:00,
2013-07-17 20:27:00,57.3,51.2,30.01,SE,135,4.2,11.8,80,0.00,,,0.00,WUHU216HW,2013-07-18 03:27:00,
2013-07-17 20:32:00,57.3,51.2,30.01,SE,135,4.9,11.8,80,0.00,,,0.00,WUHU216HW,2013-07-18 03:32:00,
2013-07-17 20:37:00,57.2,51.0,30.02,South,180,6.4,6.4,80,0.00,,,0.00,WUHU216HW,2013-07-18 03:37:00,
2013-07-17 20:42:00,56.8,51.0,30.02,WSW,248,0.0,6.4,81,0.00,,,0.00,WUHU216HW,2013-07-18 03:42:00,
2013-07-17 20:47:00,56.8,51.0,30.02,East,90,0.0,7.8,81,0.00,,,0.00,WUHU216HW,2013-07-18 03:47:00,
2013-07-17 20:52:00,56.6,51.1,30.02,SW,225,1.7,12.5,82,0.00,,,0.00,WUHU216HW,2013-07-18 03:52:00,
2013-07-17 20:57:00,56.4,51.0,30.01,South,180,3.1,12.5,82,0.00,,,0.00,WUHU216HW,2013-07-18 03:57:00,
2013-07-17 21:01:00,56.4,51.0,30.02,SSW,203,4.2,4.2,82,0.00,,,0.00,WUHU216HW,2013-07-18 04:01:00,
2013-07-17 21:03:00,56.4,51.0,30.01,SSW,203,5.3,5.3,82,0.00,,,0.00,WUHU216HW,2013-07-18 04:03:00,
2013-07-17 21:08:00,56.6,51.1,30.02,SW,225,7.1,7.1,82,0.00,,,0.00,WUHU216HW,2013-07-18 04:08:00,
2013-07-17 21:13:00,56.4,51.0,30.01,SSE,158,2.9,7.1,82,0.00,,,0.00,WUHU216HW,2013-07-18 04:13:00,
2013-07-17 21:18:00,56.4,51.0,30.02,SE,135,5.1,7.1,82,0.00,,,0.00,WUHU216HW,2013-07-18 04:18:00,
2013-07-17 21:23:00,56.4,51.0,30.02,SW,225,3.5,5.1,82,0.00,,,0.00,WUHU216HW,2013-07-18 04:23:00,
2013-07-17 21:28:00,56.4,51.0,30.02,SW,225,4.9,4.9,82,0.00,,,0.00,WUHU216HW,2013-07-18 04:28:00,
2013-07-17 21:33:00,56.1,50.9,30.02,SE,135,2.4,4.9,83,0.00,,,0.00,WUHU216HW,2013-07-18 04:33:00,
2013-07-17 21:38:00,56.1,50.9,30.02,South,180,0.0,4.9,83,0.00,,,0.00,WUHU216HW,2013-07-18 04:38:00,
2013-07-17 21:43:00,55.9,50.9,30.02,South,180,1.5,6.9,83,0.00,,,0.00,WUHU216HW,2013-07-18 04:43:00,
2013-07-17 21:49:00,55.9,50.7,30.02,SE,135,3.8,6.9,83,0.00,,,0.00,WUHU216HW,2013-07-18 04:49:00,
2013-07-17 21:54:00,55.9,50.7,30.02,SW,225,5.8,5.8,83,0.00,,,0.00,WUHU216HW,2013-07-18 04:54:00,
2013-07-17 21:59:00,55.7,50.6,30.02,ESE,113,4.2,5.8,83,0.00,,,0.00,WUHU216HW,2013-07-18 04:59:00,
2013-07-17 22:04:00,55.7,50.9,30.03,SSE,158,5.1,5.1,84,0.00,,,0.00,WUHU216HW,2013-07-18 05:04:00,
2013-07-17 22:09:00,55.7,50.9,30.03,WNW,293,5.8,6.0,84,0.00,,,0.00,WUHU216HW,2013-07-18 05:09:00,
2013-07-17 22:14:00,55.7,50.9,30.03,SSE,158,6.7,6.7,84,0.00,,,0.00,WUHU216HW,2013-07-18 05:14:00,
2013-07-17 22:19:00,55.7,50.9,30.02,SSW,203,1.5,6.7,84,0.00,,,0.00,WUHU216HW,2013-07-18 05:19:00,
2013-07-17 22:24:00,55.5,50.7,30.03,ESE,113,4.0,6.7,84,0.00,,,0.00,WUHU216HW,2013-07-18 05:24:00,
2013-07-17 22:29:00,55.5,50.7,30.03,ESE,113,7.3,7.3,84,0.00,,,0.00,WUHU216HW,2013-07-18 05:29:00,
2013-07-17 22:34:00,55.5,51.0,30.02,ESE,113,7.3,7.3,85,0.00,,,0.00,WUHU216HW,2013-07-18 05:34:00,
2013-07-17 22:39:00,55.5,51.0,30.03,SW,225,6.0,7.3,85,0.00,,,0.00,WUHU216HW,2013-07-18 05:39:00,
2013-07-17 22:44:00,55.5,51.0,30.03,ESE,113,3.8,8.7,85,0.00,,,0.00,WUHU216HW,2013-07-18 05:44:00,
2013-07-17 22:50:00,55.5,51.0,30.03,South,180,1.1,8.7,85,0.00,,,0.00,WUHU216HW,2013-07-18 05:50:00,
2013-07-17 22:55:00,55.5,51.0,30.03,SE,135,5.8,5.8,85,0.00,,,0.00,WUHU216HW,2013-07-18 05:55:00,
2013-07-17 23:00:00,55.4,50.9,30.03,SW,225,6.7,6.7,85,0.00,,,0.00,WUHU216HW,2013-07-18 06:00:00,
2013-07-17 23:05:00,55.4,50.9,30.02,SE,135,5.3,6.7,85,0.00,,,0.00,WUHU216HW,2013-07-18 06:05:00,
2013-07-17 23:10:00,55.4,50.9,30.02,SW,225,6.2,9.1,85,0.00,,,0.00,WUHU216HW,2013-07-18 06:10:00,
2013-07-17 23:15:00,55.4,50.9,30.03,South,180,9.8,9.8,85,0.00,,,0.00,WUHU216HW,2013-07-18 06:15:00,
2013-07-17 23:20:00,55.4,50.9,30.03,WSW,248,6.0,9.8,85,0.00,,,0.00,WUHU216HW,2013-07-18 06:20:00,
2013-07-17 23:25:00,55.4,50.9,30.02,SW,225,2.6,6.0,85,0.00,,,0.00,WUHU216HW,2013-07-18 06:25:00,
2013-07-17 23:30:00,55.4,50.9,30.02,SE,135,0.6,6.0,85,0.00,,,0.00,WUHU216HW,2013-07-18 06:30:00,
2013-07-17 23:35:00,55.2,50.7,30.02,SSE,158,5.3,5.3,85,0.00,,,0.00,WUHU216HW,2013-07-18 06:35:00,
2013-07-17 23:40:00,55.4,50.9,30.02,South,180,4.2,5.3,85,0.00,,,0.00,WUHU216HW,2013-07-18 06:40:00,
2013-07-17 23:45:00,55.4,50.9,30.02,SSE,158,5.3,5.3,85,0.00,,,0.00,WUHU216HW,2013-07-18 06:45:00,
2013-07-17 23:50:00,55.5,51.0,30.02,South,180,5.3,5.3,85,0.00,,,0.00,WUHU216HW,2013-07-18 06:50:00,
2013-07-17 23:56:00,55.5,50.7,30.02,SE,135,3.8,5.3,84,0.00,,,0.00,WUHU216HW,2013-07-18 06:56:00,